TimeCDT,TemperatureF,Dew PointF,Humidity,Sea Level PressureIn,VisibilityMPH,Wind Direction,Wind SpeedMPH,Gust SpeedMPH,PrecipitationIn,Events,Conditions,WindDirDegrees,DateUTC
12:53 AM,55.0,39.0,55,29.83,10.0,SE,8.1,-,N/A,,Clear,140,2013-03-21 05:53:00
1:53 AM,55.0,39.9,57,29.80,10.0,SSE,8.1,-,N/A,,Clear,150,2013-03-21 06:53:00
2:53 AM,53.1,41.0,64,29.76,10.0,SSE,10.4,-,N/A,,Clear,150,2013-03-21 07:53:00
3:53 AM,52.0,42.1,69,29.73,10.0,SSE,8.1,-,N/A,,Clear,160,2013-03-21 08:53:00
4:53 AM,51.1,44.1,77,29.70,10.0,SE,6.9,-,N/A,,Clear,130,2013-03-21 09:53:00
5:53 AM,50.0,44.1,80,29.69,10.0,SSE,5.8,-,N/A,,Clear,150,2013-03-21 10:53:00
6:53 AM,48.9,45.0,86,29.68,9.0,SE,5.8,-,N/A,,Clear,130,2013-03-21 11:53:00
7:53 AM,48.0,46.0,93,29.67,8.0,SSE,5.8,-,N/A,,Clear,150,2013-03-21 12:53:00
8:53 AM,48.0,46.0,93,29.67,5.0,South,6.9,-,N/A,,Clear,170,2013-03-21 13:53:00
9:53 AM,54.0,42.1,64,29.67,10.0,SSE,5.8,-,N/A,,Clear,160,2013-03-21 14:53:00
10:53 AM,61.0,41.0,48,29.66,10.0,Calm,Calm,-,N/A,,Clear,0,2013-03-21 15:53:00
11:53 AM,71.1,37.9,30,29.62,10.0,WSW,9.2,-,N/A,,Clear,250,2013-03-21 16:53:00
12:53 PM,82.0,27.0,13,29.57,10.0,WSW,18.4,23.0,N/A,,Clear,250,2013-03-21 17:53:00
1:53 PM,84.9,23.0,10,29.53,10.0,WNW,15.0,27.6,N/A,,Clear,300,2013-03-21 18:53:00
2:53 PM,88.0,21.0,9,29.49,10.0,West,29.9,36.8,N/A,,Clear,280,2013-03-21 19:53:00
3:53 PM,87.1,15.1,7,29.46,10.0,West,28.8,35.7,N/A,,Clear,280,2013-03-21 20:53:00
4:53 PM,86.0,7.0,5,29.45,10.0,West,23.0,35.7,N/A,,Clear,280,2013-03-21 21:53:00
5:53 PM,87.1,12.0,6,29.45,10.0,WNW,21.9,36.8,N/A,,Clear,290,2013-03-21 22:53:00
6:53 PM,84.9,16.0,8,29.46,10.0,WNW,23.0,35.7,N/A,,Clear,300,2013-03-21 23:53:00
7:53 PM,80.1,14.0,8,29.49,10.0,WNW,16.1,-,N/A,,Clear,290,2013-03-22 00:53:00
8:53 PM,77.0,16.0,10,29.52,10.0,West,11.5,-,N/A,,Clear,280,2013-03-22 01:53:00
9:53 PM,70.0,16.0,13,29.54,10.0,West,8.1,-,N/A,,Clear,270,2013-03-22 02:53:00
10:53 PM,63.0,16.0,16,29.56,10.0,West,9.2,-,N/A,,Clear,270,2013-03-22 03:53:00
11:53 PM,61.0,17.1,18,29.56,10.0,WSW,10.4,-,N/A,,Clear,250,2013-03-22 04:53:00